Home   Weather   Letterkenny   Past weeks

Flag for Ireland Past Weather in Letterkenny, Ireland — Yesterday and Last 2 Weeks

Now
36 °F

Chilly.


Feels Like: 36 °F
Forecast: 41 / 50 °F
Wind: 1 mph from Northwest

Location: Castlederg

Current Time: Apr 26, 2017 at 3:20:28 am

Latest Report: Apr 26, 2017 at 2:00 am


Visibility: N/A

Pressure: 30.26 "Hg

Humidity: 86%

Dew Point: 32 °F

Location of LetterkennyLocation

Past Weather in Letterkenny — Graph

°F

Letterkenny Temperature Yesterday

Maximum temperature yesterday: 48 °F (at 4:00 pm)
Minimum temperature yesterday: 37 °F (at 2:00 am)
Average temperature yesterday: 41 °F

High & Low Weather Summary for the Past Weeks

 TemperatureHumidityPressure
High57 °F (Apr 19, 4:00 pm)99% (Apr 16, 7:00 am)30.59 "Hg (Apr 16, 7:00 am)
Low36 °F (Apr 23, 12:00 am)47% (Apr 25, 2:00 pm)29.92 "Hg (Apr 14, 10:00 am)
Average47 °F84%30.27 "Hg
* Reported Apr 11 1:00 am — Apr 26 1:00 am, Letterkenny, Weather by CustomWeather, © 2017

Note: Actual official high and low records may vary slightly from our data, if they occured in-between our weather recording intervals... More about our weather records

Advertising

Letterkenny Weather History for the Previous 24 Hours

Scroll right to see more
 ConditionsComfort  
Time TempWeatherWind HumidityBarometerVisibility
1:00 am
Wed, Apr 26
38 °FRain showers. Overcast.9 mph85%30.26 "HgN/A
12:00 am38 °FChilly.7 mph85%30.26 "HgN/A
11:00 pm
Tue, Apr 25
37 °FChilly.7 mph88%30.26 "HgN/A
10:00 pm38 °FChilly.7 mph82%30.25 "HgN/A
9:00 pm39 °FChilly.3 mph78%30.24 "HgN/A
8:00 pm42 °FQuite cool.7 mph68%30.23 "HgN/A
7:00 pm44 °FQuite cool.13 mph59%30.22 "HgN/A
6:00 pm44 °FQuite cool.13 mph55%30.21 "HgN/A
5:00 pm47 °FCool.14 mph50%30.20 "HgN/A
4:00 pm48 °FCool.14 mph56%30.19 "HgN/A
3:00 pm47 °FCool.15 mph56%30.19 "HgN/A
2:00 pm47 °FCool.17 mph47%30.19 "HgN/A
1:00 pm46 °FCool.16 mph53%30.19 "HgN/A
12:00 pm46 °FCool.15 mph61%30.19 "HgN/A
11:00 am42 °FLots of rain. Cloudy.9 mph74%30.19 "HgN/A
10:00 am43 °FQuite cool.13 mph65%30.19 "HgN/A
9:00 am41 °FQuite cool.6 mph86%30.19 "HgN/A
8:00 am37 °FChilly.6 mph89%30.20 "HgN/A
7:00 am38 °FChilly.10 mph83%30.17 "HgN/A
6:00 am37 °FChilly.9 mph84%30.16 "HgN/A
5:00 am38 °FChilly.7 mph80%30.15 "Hg19 mi
4:00 am37 °FRain showers. Overcast.6 mph87%30.16 "Hg17 mi
3:00 am39 °FChilly.10 mph70%30.14 "Hg19 mi
Weather by CustomWeather, © 2017

See weather overviewHow to use our weather pages